CDT,Max TemperatureF,Mean TemperatureF,Min TemperatureF,Max Dew PointF,MeanDew PointF,Min DewpointF,Max Humidity, Mean Humidity, Min Humidity, Max Sea Level PressureIn, Mean Sea Level PressureIn, Min Sea Level PressureIn, Max VisibilityMiles, Mean VisibilityMiles, Min VisibilityMiles, Max Wind SpeedMPH, Mean Wind SpeedMPH, Max Gust SpeedMPH,PrecipitationIn, CloudCover, Events, WindDirDegrees
2013-8-1,86,70,53,63,56,48,88,62,37,30.10,30.01,29.90,10,10,10,16,4,20,0.00,3,,259
2013-8-2,73,66,59,61,55,52,88,67,47,30.08,29.98,29.91,10,10,10,12,4,,0.01,4,,336
2013-8-3,77,64,51,54,51,46,94,64,36,30.22,30.16,30.08,10,10,10,9,4,,0.00,1,,336
2013-8-4,77,62,48,57,52,45,88,66,41,30.25,30.16,30.02,10,10,8,12,4,,0.00,2,,140
2013-8-5,82,72,62,66,63,57,94,78,54,30.04,29.91,29.85,10,10,3,17,8,24,0.92,5,Thunderstorm,236
2013-8-6,86,72,57,64,61,54,94,69,40,29.89,29.83,29.77,10,9,1,14,5,21,0.00,0,,229
2013-8-7,75,66,55,61,56,50,88,69,44,30.06,29.97,29.83,10,10,10,15,7,18,0.00,3,,345
2013-8-8,75,64,53,63,55,48,88,77,53,30.10,30.04,30.00,10,10,10,10,3,,0.04,5,,176
2013-8-9,64,60,57,61,57,52,94,85,77,30.17,30.09,30.03,10,10,5,7,4,,0.41,5,,355
2013-8-10,77,65,53,63,56,50,94,73,47,30.22,30.17,30.10,10,10,4,13,1,,0.15,4,,279
2013-8-11,71,66,60,64,61,57,94,85,73,30.11,30.07,30.03,10,9,5,12,4,,0.63,6,Thunderstorm,137
2013-8-12,77,68,59,59,56,54,88,69,44,30.09,30.07,30.05,10,9,5,12,4,16,0.00,1,,339
2013-8-13,73,63,53,57,52,48,94,68,41,30.21,30.16,30.10,10,10,7,10,5,,0.00,1,,16
2013-8-14,73,62,50,55,49,45,87,64,36,30.24,30.19,30.14,10,10,7,10,3,,0.00,1,,193
2013-8-15,73,62,50,57,52,46,88,69,44,30.17,30.14,30.10,10,10,10,10,3,,0.00,1,,188
2013-8-16,75,62,50,57,52,46,94,70,41,30.23,30.20,30.17,10,8,0,12,3,16,0.00,3,,175
2013-8-17,78,64,51,55,52,46,88,65,39,30.23,30.19,30.14,10,10,7,14,7,22,0.00,0,,174
2013-8-18,78,64,51,61,54,46,88,67,42,30.17,30.12,30.05,10,10,10,16,7,22,0.00,0,,186
2013-8-19,84,73,62,66,61,55,82,67,51,30.08,30.00,29.93,10,10,9,16,9,21,0.00,2,,188
2013-8-20,87,76,66,72,67,63,88,72,55,29.94,29.92,29.89,10,10,9,14,9,17,0.00,3,,185
2013-8-21,82,76,71,72,68,66,94,76,61,30.01,29.94,29.89,10,9,2,12,8,17,0.00,0,,213
2013-8-22,80,73,66,70,65,61,94,77,58,30.13,30.08,30.02,10,9,2,13,5,20,0.08,2,,34
2013-8-23,82,70,59,70,64,55,94,77,61,30.14,30.10,30.05,10,9,3,16,5,18,0.00,3,,137
2013-8-24,84,78,71,72,68,64,83,73,62,30.10,30.04,29.98,10,10,10,22,14,30,0.00,1,,169
2013-8-25,91,82,73,73,70,66,83,67,49,30.08,30.04,30.00,10,10,10,21,13,26,0.00,0,,194
2013-8-26,93,83,73,73,71,66,83,67,52,30.04,29.98,29.90,10,10,10,16,11,21,0.00,0,,202
2013-8-27,91,84,77,75,69,64,83,63,49,29.93,29.87,29.84,10,10,4,14,9,20,0.00,0,,234
2013-8-28,89,80,71,77,74,70,94,80,62,30.03,29.98,29.92,10,8,0,9,3,,0.00,3,,101
2013-8-29,91,80,69,75,68,64,94,68,41,30.03,29.97,29.90,10,9,0,15,7,20,0.00,1,,187
2013-8-30,82,76,71,72,69,66,88,79,65,29.94,29.90,29.88,10,10,10,13,6,18,0.00,1,,327
2013-8-31,87,80,73,68,65,63,83,59,43,29.87,29.83,29.79,10,10,9,12,4,17,0.00,1,,174